Station 41082 - OOI Pioneer - Mid-Atlantic Bight Central Surface Mooring Image indicating link to RSS feed of recent meteorological observations for station 41082


Conditions at 41082 as of
(3:00 am EDT)
0700 GMT on 05/19/2024:
Note: This report is more than two hours old
     

Click on the graph icon in the table below to see a time series plot of the last five days of that observation.

5-day plot - Wind Direction Wind Direction (WDIR):NNE ( 30 deg true )
5-day plot - Wind Speed Wind Speed (WSPD): 13.6 kts
5-day plot - Atmospheric Pressure Atmospheric Pressure (PRES):29.85 in
5-day plot - Pressure Tendency Pressure Tendency (PTDY):+0.00 in ( Steady )
5-day plot - Air Temperature Air Temperature (ATMP): 55.9 °F
5-day plot - Water Temperature Water Temperature (WTMP): 57.0 °F
5-day plot - Salinity Salinity (SAL): 31.17 psu
5-day plot - Wind Speed at 10 Meters Wind Speed at 10 meters (WSPD10M): 15.5 kts
5-day plot - Wind Speed at 20 Meters Wind Speed at 20 meters (WSPD20M): 17.5 kts
5-day plot -  Wind Speed, Wind Gust and Atmospheric Pressure Combined plot of Wind Speed, Gust, and Air Pressure
Previous observations
TIME
(EDT)
5-day plot - Wind Direction
WDIR
 
5-day plot - Wind Speed
WSPD
kts
5-day plot - Wind Gust
GST
kts
5-day plot - Wave Height
WVHT
ft
5-day plot - Dominant Wave Period
DPD
sec
5-day plot - Average Wave Period
APD
sec
5-day plot - Mean Wave Direction
MWD
 
5-day plot - Atmospheric Pressure
PRES
in
5-day plot - Pressure Tendency
PTDY
in
5-day plot - Air Temperature
ATMP
°F
5-day plot - Water Temperature
WTMP
°F
5-day plot - Dew Point
DEWP
°F
5-day plot - Salinity
SAL
psu
5-day plot - Visibility
VIS
nmi
5-day plot - Tide (above MLLW)
TIDE
ft
2024-05-19 02:50 amNNE 15.5-----29.85- 56.1 57.0- 31.17--
2024-05-19 02:40 amNNE 15.5-----29.85- 56.5 57.0- 31.17--
2024-05-19 02:30 amNNE 13.6- 3.9--ENE29.85- 56.7 57.0- 31.16--
2024-05-19 02:20 amNNE 13.6- 3.9 6--29.85- 56.8 57.0- 31.17--
2024-05-19 02:10 amNNE 13.6-----29.85- 56.8 56.8- 31.17--
2024-05-19 02:00 amNNE 13.6-----29.84- 57.0 56.8- 31.17--
2024-05-19 01:50 amNNE 13.6-----29.83- 57.0 56.8- 31.18--
2024-05-19 01:40 amNNE 13.6-----29.84- 57.2 56.8- 31.18--
2024-05-19 01:30 amNNE 13.6- 8.5--NNE29.84- 57.6 56.8- 31.18--
2024-05-19 01:20 amNNE 13.6- 8.5 14--29.84- 57.9 56.8- 31.18--
2024-05-19 01:10 amNNE 13.6-----29.84- 57.7 56.8- 31.18--
2024-05-19 01:00 amNNE 11.7-----29.85- 57.6 56.8- 31.18--
2024-05-19 12:50 amNNE 11.7-----29.85- 57.6 56.7- 31.19--
2024-05-19 12:40 am NE 11.7-----29.85- 57.7 56.7- 31.19--
2024-05-19 12:30 am NE 13.6- 3.9--ENE29.85- 58.1 56.7- 31.20--
2024-05-19 12:20 am NE 13.6- 3.9 6--29.85- 58.1 56.8- 31.22--
2024-05-19 12:10 am NE 13.6-----29.84- 58.3 56.8- 31.22--
2024-05-19 12:00 am NE 11.7-----29.85- 58.5 56.8- 31.22--
2024-05-18 11:50 pm NE 11.7-----29.86- 58.6 56.8- 31.22--
2024-05-18 11:40 pm NE 11.7-----29.85- 58.6 57.0- 31.22--
2024-05-18 11:30 pm NE 11.7- 3.3--ENE29.85- 58.5 57.0- 31.23--
2024-05-18 11:20 pm NE 13.6- 3.3 5--29.86- 58.3 57.2- 31.24--
2024-05-18 11:10 pm NE 13.6-----29.86- 58.3 57.2- 31.24--
2024-05-18 11:00 pm NE 13.6-----29.87- 58.5 57.4- 31.26--
2024-05-18 10:50 pm NE 13.6-----29.87- 58.3 57.4- 31.28--
2024-05-18 10:40 pm NE 13.6-----29.86- 58.1 57.4- 31.29--
2024-05-18 10:30 pm NE 13.6- 3.6-- NE29.86- 58.1 57.6- 31.29--
2024-05-18 10:20 pm NE 13.6- 3.6 7--29.88- 58.1 57.4- 31.28--
2024-05-18 10:10 pm NE 13.6-----29.88- 58.1 57.4- 31.27--
2024-05-18 10:00 pm NE 13.6-----29.88- 58.3 57.2- 31.27--
2024-05-18 09:50 pm NE 11.7-----29.88- 58.1 57.2- 31.27--
2024-05-18 09:40 pm NE 11.7-----29.87- 58.3 57.2- 31.28--
2024-05-18 09:30 pm NE 11.7- 7.9--NNE29.87- 58.5 57.2- 31.28--
2024-05-18 09:20 pm NE 11.7- 7.9 17--29.87- 58.6 57.2- 31.29--
2024-05-18 09:10 pm NE 13.6-----29.87- 58.6 57.4- 31.29--
2024-05-18 09:00 pmENE 13.6-----29.86- 58.6 57.4- 31.29--
2024-05-18 08:50 pmENE 13.6-----29.86- 58.6 57.4- 31.30--
2024-05-18 08:40 pmENE 13.6-----29.86- 58.6 57.4- 31.30--
2024-05-18 08:30 pmENE 13.6- 7.2--NNE29.86- 58.5 57.4- 31.29--
2024-05-18 08:20 pmENE 11.7- 7.2 15--29.86- 58.5 57.4- 31.29--
2024-05-18 08:10 pmENE 13.6-----29.86- 58.6 57.4- 31.29--
2024-05-18 08:00 pmENE 11.7-----29.86- 58.5 57.4- 31.28--
2024-05-18 07:50 pmENE 11.7-----29.87- 58.5 57.4- 31.27--
2024-05-18 07:40 pmENE 11.7-----29.87- 58.3 57.4- 31.26--
2024-05-18 07:30 pmENE 11.7- 3.6-- NE29.87- 58.5 57.4- 31.24--
2024-05-18 07:20 pmENE 13.6- 3.6 8--29.86- 58.6 57.2- 31.22--
2024-05-18 07:10 pmENE 11.7-----29.86- 58.8 57.2- 31.23--
2024-05-18 07:00 pmENE 11.7-----29.86- 58.5 57.2- 31.23--
2024-05-18 06:50 pmENE 11.7-----29.86- 58.3 57.2- 31.23--
2024-05-18 06:40 pmENE 13.6-----29.86- 58.3 57.2- 31.22--
2024-05-18 06:30 pmENE 13.6- 3.3--ENE29.86- 58.1 57.2- 31.22--
2024-05-18 06:20 pmENE 15.5- 3.3 7--29.86- 58.1 57.2- 31.22--
2024-05-18 06:10 pm NE 13.6-----29.87- 58.5 57.0- 31.22--
2024-05-18 06:00 pmENE 11.7-----29.87- 58.3 57.0- 31.22--
2024-05-18 05:50 pmENE 11.7-----29.87- 58.5 57.2- 31.22--
2024-05-18 05:40 pmENE 11.7-----29.88- 58.5 57.2- 31.22--
2024-05-18 05:30 pm NE 9.7- 3.0--ENE29.88- 58.5 57.2- 31.21--
2024-05-18 05:20 pmENE 9.7- 3.0 7--29.88- 58.6 57.2- 31.21--
2024-05-18 05:10 pmENE 9.7-----29.88- 58.8 57.4- 31.20--
2024-05-18 05:00 pmENE 9.7-----29.88- 58.8 57.4- 31.20--
2024-05-18 04:50 pmENE 7.8-----29.88- 59.0 57.4- 31.20--
2024-05-18 04:40 pmENE 11.7-----29.88- 59.0 57.2- 31.20--
2024-05-18 04:30 pmENE 11.7- 3.3--ENE29.88- 58.8 57.2- 31.20--
2024-05-18 04:20 pmNNE 9.7- 3.3 7--29.89- 59.0 57.2- 31.21--
2024-05-18 04:10 pm NE 7.8-----29.90- 59.4 57.2- 31.21--
2024-05-18 04:00 pmENE 7.8-----29.89- 59.7 57.2- 31.21--
2024-05-18 03:50 pmNNE 7.8-----29.90- 59.5 57.2- 31.22--
2024-05-18 03:40 pmENE 11.7-----29.89- 60.3 57.2- 31.22--
2024-05-18 03:30 pmNNE 7.8- 3.0--ENE29.90- 59.9 57.2- 31.23--
2024-05-18 03:20 pmENE 9.7- 3.0 7--29.90- 60.4 57.4- 31.22--
2024-05-18 03:10 pmENE 9.7-----29.90- 59.7 57.2- 31.21--
2024-05-18 03:00 pm NE 7.8-----29.90- 59.2 57.2- 31.21--
2024-05-18 02:50 pmENE 9.7-----29.90- 59.0 57.2- 31.20--
2024-05-18 02:40 pmENE 7.8-----29.90- 59.0 57.2- 31.20--
2024-05-18 02:30 pm E 7.8- 3.6--ENE29.90- 59.4 57.2- 31.21--
2024-05-18 02:20 pm E 7.8- 3.6 7--29.90- 59.4 57.2- 31.21--
2024-05-18 02:10 pm E 7.8-----29.91- 59.4 57.2- 31.21--
2024-05-18 02:00 pm E 9.7-----29.91- 59.5 57.2- 31.21--
2024-05-18 01:50 pm E 9.7-----29.92- 59.4 57.2- 31.21--
2024-05-18 01:40 pm E 9.7-----29.92- 59.0 57.2- 31.21--
2024-05-18 01:30 pm E 7.8- 3.6--ENE29.92- 58.3 57.0- 31.21--
2024-05-18 01:20 pm E 7.8- 3.6 8--29.93- 58.1 57.0- 31.21--
2024-05-18 01:10 pm E 5.8-----29.93- 58.1 57.0- 31.21--
2024-05-18 01:00 pm E 5.8-----29.94- 58.1 57.0- 31.21--
2024-05-18 12:50 pm E 7.8-----29.93- 58.1 57.0- 31.21--
2024-05-18 12:40 pm E 7.8-----29.93- 57.9 57.0- 31.21--
2024-05-18 12:30 pm E 9.7- 3.0--ENE29.93- 57.9 57.0- 31.21--
2024-05-18 12:20 pmESE 9.7- 3.0 7--29.92- 58.1 57.0- 31.22--
2024-05-18 12:10 pm E 9.7-----29.93- 58.1 57.0- 31.21--
2024-05-18 12:00 pm E 9.7-----29.93- 58.1 57.0- 31.21--
2024-05-18 11:50 am E 9.7-----29.93- 57.9 57.0- 31.20--
2024-05-18 11:40 amESE 9.7-----29.94- 57.7 57.0- 31.18--
2024-05-18 11:30 amESE 7.8- 3.6--ENE29.94- 57.7 57.0- 31.17--
2024-05-18 11:20 amESE 9.7- 3.6 8--29.94- 57.6 57.0- 31.15--
2024-05-18 11:10 amESE 7.8-----29.94- 57.2 57.0- 31.14--
2024-05-18 11:00 amESE 7.8-----29.95- 57.0 57.0- 31.15--
2024-05-18 10:50 amESE 7.8-----29.95- 57.0 57.0- 31.14--
2024-05-18 10:40 amESE 7.8-----29.95- 56.8 56.8- 31.12--
2024-05-18 10:30 am E 7.8- 3.0--ENE29.95- 56.7 56.8- 31.11--
2024-05-18 10:20 am E 5.8- 3.3 7--29.95- 56.7 56.8- 31.10--
2024-05-18 10:10 am E 5.8-----29.95- 56.7 56.8- 31.12--
2024-05-18 10:00 amENE 3.9-----29.96- 56.7 56.8- 31.17--
2024-05-18 09:50 am E 3.9-----29.96- 56.5 56.7- 31.19--
2024-05-18 09:40 amESE 3.9-----29.96- 56.5 56.7- 31.19--
2024-05-18 09:30 am SE 3.9- 3.3--ENE29.96- 56.5 56.7- 31.20--
2024-05-18 09:20 am SE 3.9- 3.3 7--29.96- 56.5 56.7- 31.22--
2024-05-18 09:10 am SE 1.9-----29.97- 56.3 56.7- 31.22--
2024-05-18 09:00 am SE 3.9-----29.97- 56.3 56.7- 31.21--
2024-05-18 08:50 amESE 3.9-----29.97- 56.1 56.5- 31.22--
2024-05-18 08:40 amESE 5.8-----29.97- 56.1 56.5- 31.23--
2024-05-18 08:30 am SE 3.9-----29.97- 55.9 56.5- 31.25--
2024-05-18 08:20 amESE 5.8-----29.97- 55.8 56.5- 31.25--
2024-05-18 08:10 am E 5.8-----29.97- 55.6 56.5- 31.26--
2024-05-18 08:00 am E 7.8-----29.95- 55.4 56.5- 31.27--
2024-05-18 07:50 am E 9.7-----29.94- 55.0 56.5- 31.28--
2024-05-18 07:40 am E 9.7-----29.94- 54.7 56.7- 31.29--
2024-05-18 07:30 am E 9.7- 3.0--ENE29.94- 54.5 56.7- 31.29--
2024-05-18 07:20 am E 9.7- 3.0 7--29.94- 54.5 56.7- 31.30--
2024-05-18 07:10 amENE 9.7-----29.94- 54.1 56.7- 31.30--
2024-05-18 07:00 amENE 11.7-----29.94- 54.1 56.7- 31.31--
2024-05-18 06:50 amENE 9.7-----29.94- 54.1 56.7- 31.31--
2024-05-18 06:40 amENE 9.7-----29.94- 54.3 56.8- 31.32--
2024-05-18 06:30 amENE 9.7- 2.6--ENE29.94- 54.7 56.7- 31.32--
2024-05-18 06:20 amENE 7.8- 2.6 7--29.94- 54.9 56.7- 31.31--
2024-05-18 06:10 am E 5.8-----29.94- 54.9 56.7- 31.31--
2024-05-18 06:00 am E 5.8-----29.94- 54.7 56.7- 31.31--
2024-05-18 05:50 amENE 7.8-----29.93- 54.7 56.7- 31.31--

Detailed Wave Summary
for 41082 as of (2:20 am EDT)
0620 GMT on 05/19/2024:

Note: This report is more than two hours old

These wave data are displayed in rounded times.

     

Click on the graph icon in the table below to see a time series plot of the last five days of that observation.

5-day plot - Significant Wave Height Significant Wave Height (WVHT): 3.9 ft
5-day plot - Wave Steepness Wave Steepness (STEEPNESS): STEEP
Previous observations
TIME
(EDT)
5-day plot - Wave Height
WVHT
ft
5-day plot - Swell Height
SwH
ft
5-day plot - Swell Period
SwP
sec
5-day plot - Swell Direction
SwD
 
5-day plot - Wind Wave Height
WWH
ft
5-day plot - Wind Wave Period
WWP
sec
5-day plot - Wind Wave Direction
WWD
 
5-day plot - Wave Steepness
STEEPNESS
 
5-day plot - Average Wave Period
APD
sec
2024-05-19 01:20 am 8.5------ N/A-
2024-05-19 12:20 am 3.9------ STEEP-
2024-05-18 11:20 pm 3.3------VERY_STEEP-
2024-05-18 10:20 pm 3.6------ AVERAGE-
2024-05-18 09:20 pm 7.9------ N/A-
2024-05-18 08:20 pm 7.2------ N/A-
2024-05-18 07:20 pm 3.6------ AVERAGE-
2024-05-18 06:20 pm 3.3------ AVERAGE-
2024-05-18 05:20 pm 3.0------ AVERAGE-
2024-05-18 04:20 pm 3.3------ AVERAGE-
2024-05-18 03:20 pm 3.0------ AVERAGE-
2024-05-18 02:20 pm 3.6------ AVERAGE-
2024-05-18 01:20 pm 3.6------ AVERAGE-
2024-05-18 12:20 pm 3.0------ AVERAGE-
2024-05-18 11:20 am 3.6------ AVERAGE-
2024-05-18 10:20 am 3.0------ AVERAGE-
2024-05-18 09:20 am 3.3------ AVERAGE-
2024-05-18 07:20 am 3.0------ AVERAGE-
2024-05-18 06:20 am 2.6------ AVERAGE-

Ocean Conditions at 41082 as of
(3:00 am EDT)
0700 GMT on 05/19/2024:
Note: This report is more than two hours old

These oceanographic data are displayed in rounded times.

     

Click on the graph icon in the table below to see a time series plot of the last five days of that observation.

Depth (DEPTH): 3.0 ft
5-day plot - Ocean Temperature Ocean Temperature (OTMP):56.97 °F
5-day plot - Salinity Salinity (SAL):31.17 psu
Previous observations
TIME
(EDT)
DEPTH
ft
5-day plot - Ocean Temperature
OTMP
°F
5-day plot - Conductivity
COND
mS/cm
5-day plot - Salinity
SAL
psu
5-day plot - Oxygen Concentration
O2%
%
5-day plot - Oxygen Concentration
O2PPM
ppm
5-day plot - Chlorophyll
CLCON
ug/l
5-day plot - Turbidity
TURB
FTU
5-day plot - pH
PH
 
5-day plot - Eh
EH
mv
2024-05-19 02:50 am 3.056.98-31.17------
2024-05-19 02:40 am 3.057.04-31.17------
2024-05-19 02:30 am 3.057.07-31.16------
2024-05-19 02:20 am 3.056.93-31.17------
2024-05-19 02:10 am 3.056.89-31.17------
2024-05-19 02:00 am 3.056.89-31.17------
2024-05-19 01:50 am 3.056.91-31.18------
2024-05-19 01:40 am 3.056.91-31.18------
2024-05-19 01:30 am 3.056.88-31.18------
2024-05-19 01:20 am 3.056.86-31.18------
2024-05-19 01:10 am 3.056.80-31.18------
2024-05-19 01:00 am 3.056.77-31.18------
2024-05-19 12:50 am 3.056.75-31.19------
2024-05-19 12:40 am 3.056.73-31.19------
2024-05-19 12:30 am 3.056.73-31.20------
2024-05-19 12:20 am 3.056.80-31.22------
2024-05-19 12:10 am 3.056.82-31.22------
2024-05-19 12:00 am 3.056.88-31.22------
2024-05-18 11:50 pm 3.056.93-31.22------
2024-05-18 11:40 pm 3.056.98-31.22------
2024-05-18 11:30 pm 3.057.06-31.23------
2024-05-18 11:20 pm 3.057.13-31.24------
2024-05-18 11:10 pm 3.057.20-31.24------
2024-05-18 11:00 pm 3.057.29-31.26------
2024-05-18 10:50 pm 3.057.40-31.28------
2024-05-18 10:40 pm 3.057.40-31.29------
2024-05-18 10:30 pm 3.057.51-31.29------
2024-05-18 10:20 pm 3.057.42-31.28------
2024-05-18 10:10 pm 3.057.33-31.27------
2024-05-18 10:00 pm 3.057.25-31.27------
2024-05-18 09:50 pm 3.057.20-31.27------
2024-05-18 09:40 pm 3.057.20-31.28------
2024-05-18 09:30 pm 3.057.18-31.28------
2024-05-18 09:20 pm 3.057.22-31.29------
2024-05-18 09:10 pm 3.057.34-31.29------
2024-05-18 09:00 pm 3.057.36-31.29------
2024-05-18 08:50 pm 3.057.38-31.30------
2024-05-18 08:40 pm 3.057.40-31.30------
2024-05-18 08:30 pm 3.057.43-31.29------
2024-05-18 08:20 pm 3.057.45-31.29------
2024-05-18 08:10 pm 3.057.45-31.29------
2024-05-18 08:00 pm 3.057.43-31.28------
2024-05-18 07:50 pm 3.057.42-31.27------
2024-05-18 07:40 pm 3.057.38-31.26------
2024-05-18 07:30 pm 3.057.34-31.24------
2024-05-18 07:20 pm 3.057.27-31.22------
2024-05-18 07:10 pm 3.057.24-31.23------
2024-05-18 07:00 pm 3.057.22-31.23------
2024-05-18 06:50 pm 3.057.18-31.23------
2024-05-18 06:40 pm 3.057.16-31.22------
2024-05-18 06:30 pm 3.057.13-31.22------
2024-05-18 06:20 pm 3.057.11-31.22------
2024-05-18 06:10 pm 3.057.09-31.22------
2024-05-18 06:00 pm 3.057.07-31.22------
2024-05-18 05:50 pm 3.057.11-31.22------
2024-05-18 05:40 pm 3.057.11-31.22------
2024-05-18 05:30 pm 3.057.15-31.21------
2024-05-18 05:20 pm 3.057.22-31.21------
2024-05-18 05:10 pm 3.057.29-31.20------
2024-05-18 05:00 pm 3.057.33-31.20------
2024-05-18 04:50 pm 3.057.31-31.20------
2024-05-18 04:40 pm 3.057.29-31.20------
2024-05-18 04:30 pm 3.057.27-31.20------
2024-05-18 04:20 pm 3.057.25-31.21------
2024-05-18 04:10 pm 3.057.27-31.21------
2024-05-18 04:00 pm 3.057.25-31.21------
2024-05-18 03:50 pm 3.057.20-31.22------
2024-05-18 03:40 pm 3.057.18-31.22------
2024-05-18 03:30 pm 3.057.20-31.23------
2024-05-18 03:20 pm 3.057.29-31.22------
2024-05-18 03:10 pm 3.057.25-31.21------
2024-05-18 03:00 pm 3.057.24-31.21------
2024-05-18 02:50 pm 3.057.24-31.20------
2024-05-18 02:40 pm 3.057.25-31.20------
2024-05-18 02:30 pm 3.057.24-31.21------
2024-05-18 02:20 pm 3.057.20-31.21------
2024-05-18 02:10 pm 3.057.16-31.21------
2024-05-18 02:00 pm 3.057.13-31.21------
2024-05-18 01:50 pm 3.057.11-31.21------
2024-05-18 01:40 pm 3.057.11-31.21------
2024-05-18 01:30 pm 3.057.09-31.21------
2024-05-18 01:20 pm 3.057.09-31.21------
2024-05-18 01:10 pm 3.057.07-31.21------
2024-05-18 01:00 pm 3.057.07-31.21------
2024-05-18 12:50 pm 3.057.09-31.21------
2024-05-18 12:40 pm 3.057.07-31.21------
2024-05-18 12:30 pm 3.057.07-31.21------
2024-05-18 12:20 pm 3.057.07-31.22------
2024-05-18 12:10 pm 3.057.06-31.21------
2024-05-18 12:00 pm 3.057.04-31.21------
2024-05-18 11:50 am 3.057.02-31.20------
2024-05-18 11:40 am 3.057.02-31.18------
2024-05-18 11:30 am 3.057.02-31.17------
2024-05-18 11:20 am 3.057.00-31.15------
2024-05-18 11:10 am 3.056.97-31.14------
2024-05-18 11:00 am 3.056.97-31.15------
2024-05-18 10:50 am 3.056.95-31.14------
2024-05-18 10:40 am 3.056.91-31.12------
2024-05-18 10:30 am 3.056.89-31.11------
2024-05-18 10:20 am 3.056.86-31.10------
2024-05-18 10:10 am 3.056.82-31.12------
2024-05-18 10:00 am 3.056.77-31.17------
2024-05-18 09:50 am 3.056.73-31.19------
2024-05-18 09:40 am 3.056.73-31.19------
2024-05-18 09:30 am 3.056.68-31.20------
2024-05-18 09:20 am 3.056.64-31.22------
2024-05-18 09:10 am 3.056.62-31.22------
2024-05-18 09:00 am 3.056.61-31.21------
2024-05-18 08:50 am 3.056.57-31.22------
2024-05-18 08:40 am 3.056.53-31.23------
2024-05-18 08:30 am 3.056.53-31.25------
2024-05-18 08:20 am 3.056.55-31.25------
2024-05-18 08:10 am 3.056.55-31.26------
2024-05-18 08:00 am 3.056.53-31.27------
2024-05-18 07:50 am 3.056.57-31.28------
2024-05-18 07:40 am 3.056.59-31.29------
2024-05-18 07:30 am 3.056.61-31.29------
2024-05-18 07:20 am 3.056.64-31.30------
2024-05-18 07:10 am 3.056.68-31.30------
2024-05-18 07:00 am 3.056.70-31.31------
2024-05-18 06:50 am 3.056.73-31.31------
2024-05-18 06:40 am 3.056.75-31.32------
2024-05-18 06:30 am 3.056.75-31.32------
2024-05-18 06:20 am 3.056.71-31.31------
2024-05-18 06:10 am 3.056.68-31.31------
2024-05-18 06:00 am 3.056.66-31.31------
2024-05-18 05:50 am 3.056.61-31.31------

Solar Radiation Conditions at 41082 as of
(3:00 am EDT)
0700 GMT on 05/19/2024:
Note: This report is more than two hours old
     

Click on the graph icon in the table below to see a time series plot of the last five days of that observation.

5-day plot - Short Wave Radiation 1 Short Wave Radiation 1 (SRAD1): 2.8watts/meter2
5-day plot - Long Wave Radiation Long Wave Radiation (LWRAD): 384.3watts/meter2
Previous observations
TIME
(EDT)
5-day plot - Short Wave Radiation 1
SRAD1
w/m2
5-day plot - Short Wave Radiation 2
SRAD2
w/m2
5-day plot - Long Wave Radiation
LRAD
w/m2
2024-05-19 02:50 am 2.9- 386.1
2024-05-19 02:40 am 2.9- 384.5
2024-05-19 02:30 am 3.0- 383.9
2024-05-19 02:20 am 3.0- 383.3
2024-05-19 02:10 am 2.9- 385.6
2024-05-19 02:00 am 2.9- 385.5
2024-05-19 01:50 am 2.9- 387.3
2024-05-19 01:40 am 2.8- 389.1
2024-05-19 01:30 am 2.8- 389.4
2024-05-19 01:20 am 3.2- 390.2
2024-05-19 01:10 am 3.1- 391.0
2024-05-19 01:00 am 3.1- 391.4
2024-05-19 12:50 am 2.9- 390.2
2024-05-19 12:40 am 2.8- 390.1
2024-05-19 12:30 am 3.0- 391.6
2024-05-19 12:20 am 2.8- 391.1
2024-05-19 12:10 am 2.9- 390.8
2024-05-19 12:00 am 3.0- 392.5
2024-05-18 11:50 pm 3.0- 391.7
2024-05-18 11:40 pm 3.1- 392.6
2024-05-18 11:30 pm 3.1- 391.7
2024-05-18 11:20 pm 2.9- 391.2
2024-05-18 11:10 pm 2.8- 389.6
2024-05-18 11:00 pm 3.0- 390.3
2024-05-18 10:50 pm 3.1- 391.2
2024-05-18 10:40 pm 3.0- 389.1
2024-05-18 10:30 pm 2.8- 386.6
2024-05-18 10:20 pm 2.9- 388.4
2024-05-18 10:10 pm 2.9- 390.3
2024-05-18 10:00 pm 2.8- 390.4
2024-05-18 09:50 pm 2.9- 391.6
2024-05-18 09:40 pm 2.8- 391.4
2024-05-18 09:30 pm 2.9- 392.1
2024-05-18 09:20 pm 3.1- 391.9
2024-05-18 09:10 pm 3.0- 391.7
2024-05-18 09:00 pm 2.9- 391.7
2024-05-18 08:50 pm 2.9- 391.6
2024-05-18 08:40 pm 3.0- 392.4
2024-05-18 08:30 pm 3.0- 391.9
2024-05-18 08:20 pm 2.9- 390.7
2024-05-18 08:10 pm 3.2- 390.8
2024-05-18 08:00 pm 3.8- 389.6
2024-05-18 07:50 pm 5.2- 389.7
2024-05-18 07:40 pm 8.7- 388.3
2024-05-18 07:30 pm 16.4- 387.8
2024-05-18 07:20 pm 19.4- 388.2
2024-05-18 07:10 pm 23.9- 388.2
2024-05-18 07:00 pm 20.6- 388.5
2024-05-18 06:50 pm 28.6- 387.8
2024-05-18 06:40 pm 38.3- 388.6
2024-05-18 06:30 pm 39.1- 388.2
2024-05-18 06:20 pm 54.0- 387.6
2024-05-18 06:10 pm 57.1- 387.9
2024-05-18 06:00 pm 74.2- 388.8
2024-05-18 05:50 pm 82.0- 388.5
2024-05-18 05:40 pm 74.1- 390.8
2024-05-18 05:30 pm 68.3- 391.4
2024-05-18 05:20 pm 63.0- 391.8
2024-05-18 05:10 pm 103.0- 391.3
2024-05-18 05:00 pm 93.4- 390.6
2024-05-18 04:50 pm 125.0- 390.3
2024-05-18 04:40 pm 196.2- 387.9
2024-05-18 04:30 pm 196.2- 388.5
2024-05-18 04:20 pm 101.4- 391.3
2024-05-18 04:10 pm 35.2- 392.1
2024-05-18 04:00 pm 64.3- 394.6
2024-05-18 03:50 pm 54.7- 393.5
2024-05-18 03:40 pm 113.2- 395.8
2024-05-18 03:30 pm 80.3- 394.9
2024-05-18 03:20 pm 82.5- 396.7
2024-05-18 03:10 pm 81.7- 396.0
2024-05-18 03:00 pm 116.6- 393.2
2024-05-18 02:50 pm 183.4- 394.5
2024-05-18 02:40 pm 260.0- 392.9
2024-05-18 02:30 pm 424.2- 394.5
2024-05-18 02:20 pm 420.5- 393.5
2024-05-18 02:10 pm 688.8- 382.7
2024-05-18 02:00 pm 657.1- 390.2
2024-05-18 01:50 pm 594.3- 386.4
2024-05-18 01:40 pm 427.4- 392.0
2024-05-18 01:30 pm 474.2- 389.6
2024-05-18 01:20 pm 295.6- 392.2
2024-05-18 01:10 pm 245.3- 391.4
2024-05-18 01:00 pm 235.5- 390.6
2024-05-18 12:50 pm 364.7- 391.1
2024-05-18 12:40 pm 345.7- 389.4
2024-05-18 12:30 pm 244.1- 385.8
2024-05-18 12:20 pm 313.3- 388.1
2024-05-18 12:10 pm 458.3- 386.9
2024-05-18 12:00 pm 389.9- 386.4
2024-05-18 11:50 am 181.1- 388.1
2024-05-18 11:40 am 139.1- 387.9
2024-05-18 11:30 am 144.3- 388.6
2024-05-18 11:20 am 134.8- 388.0
2024-05-18 11:10 am 99.3- 387.4
2024-05-18 11:00 am 103.5- 386.6
2024-05-18 10:50 am 152.1- 386.6
2024-05-18 10:40 am 163.6- 385.9
2024-05-18 10:30 am 135.0- 385.0
2024-05-18 10:20 am 127.5- 384.3
2024-05-18 10:10 am 84.8- 384.1
2024-05-18 10:00 am 77.3- 383.5
2024-05-18 09:50 am 104.9- 383.6
2024-05-18 09:40 am 112.1- 383.1
2024-05-18 09:30 am 134.8- 382.2
2024-05-18 09:20 am 148.2- 382.1
2024-05-18 09:10 am 130.7- 382.9
2024-05-18 09:00 am 73.3- 383.4
2024-05-18 08:50 am 39.0- 382.4
2024-05-18 08:40 am 65.2- 379.7
2024-05-18 08:30 am 42.4- 379.6
2024-05-18 08:20 am 42.2- 377.6
2024-05-18 08:10 am 54.1- 377.5
2024-05-18 08:00 am 65.2- 372.1
2024-05-18 07:50 am 72.2- 371.9
2024-05-18 07:40 am 47.6- 372.3
2024-05-18 07:30 am 31.7- 372.3
2024-05-18 07:20 am 17.2- 372.4
2024-05-18 07:10 am 21.9- 373.2
2024-05-18 07:00 am 23.2- 372.2
2024-05-18 06:50 am 26.7- 370.4
2024-05-18 06:40 am 33.5- 369.0
2024-05-18 06:30 am 37.5- 368.1
2024-05-18 06:20 am 23.0- 365.8
2024-05-18 06:10 am 17.4- 364.6
2024-05-18 06:00 am 10.3- 358.2
2024-05-18 05:50 am 6.9- 354.6